Inquirer Daily News

Weather

Get conditions and forecasts for any City, State, ZIP code or Country:  
Northeast Philadelphia, PA
on Tuesday, November 13, 2012

Tuesday
Previous Day Next Day
Daily Summary
 ActualAverage (KTTN)Record (KTTN)
Temperature
Mean Temperature °F 47°F  
Max Temperature 63°F 56°F 73°F (1912)
Min Temperature 37°F 38°F 20°F (1986)
Degree Days
Heating Degree Days 15 18  
Month to date heating degree days 216  
Since 1 July heating degree days 613  
Cooling Degree Days 0 0  
Month to date cooling degree days 0  
Year to date cooling degree days 965  
Moisture
Dew Point 39°F   
Average Humidity 79    
Maximum Humidity 94    
Minimum Humidity 58    
Precipitation
Precipitation 0.18 in 0.09 in 1.58 in (1937)
Month to date precipitation 1.36  
Year to date precipitation 40.79  
Wind
Wind Speed 12 mph   
Max Wind Speed 25 mph   
Max Gust Speed 34 mph   
Visibility 9 miles   
Events Rain   

Key: T is trace of precipitation, MM is missing value
Source: NWS Daily Summary
Time(EST)TemperatureDew PointHumidity Pressure Visibility Wind DirectionWind SpeedGust SpeedPrecipitationEvents Conditions
12:54 AM 63.0°F 57.9°F 84% 30.17 in 10.0 miles South 8.1 mph - N/A   Overcast
1:54 AM 63.0°F 57.9°F 84% 30.16 in 10.0 miles SSW 8.1 mph - N/A   Mostly Cloudy
2:54 AM 61.0°F 55.9°F 83% 30.17 in 10.0 miles WNW 25.3 mph 34.5 mph N/A   Overcast
3:04 AM 53.6°F 51.8°F 94% 30.19 in 10.0 miles WNW 23.0 mph 32.2 mph 0.00 in Rain Light Rain
3:41 AM 51.8°F 48.2°F 88% 30.20 in 10.0 miles NW 18.4 mph 25.3 mph 0.05 in Rain Light Rain
3:54 AM 50.0°F 46.0°F 86% 30.21 in 10.0 miles NNW 19.6 mph 31.1 mph 0.05 in Rain Light Rain
4:20 AM 48.2°F 46.4°F 93% 30.22 in 10.0 miles NNW 13.8 mph - 0.00 in Rain Light Rain
4:54 AM 48.0°F 46.0°F 93% 30.24 in 4.0 miles NW 10.4 mph 19.6 mph 0.04 in Rain Light Rain
5:54 AM 46.9°F 44.1°F 90% 30.26 in 10.0 miles NW 8.1 mph 19.6 mph 0.01 in   Overcast
6:54 AM 46.4°F 42.8°F 87% 30.31 in 10.0 miles NW 10.4 mph 16.1 mph N/A Rain Light Rain
7:54 AM 44.1°F 39.9°F 85% 30.33 in 3.0 miles NNW 10.4 mph - 0.00 in Rain Rain
8:39 AM 42.8°F 41.0°F 93% 30.34 in 2.5 miles NW 9.2 mph - 0.04 in Rain Rain
8:47 AM 42.8°F 41.0°F 93% 30.34 in 3.0 miles NW 10.4 mph - 0.05 in Rain Light Rain
8:54 AM 43.0°F 41.0°F 93% 30.35 in 5.0 miles NW 9.2 mph - 0.06 in Rain Light Rain
9:54 AM 44.1°F 41.0°F 89% 30.36 in 10.0 miles WNW 9.2 mph - 0.01 in Rain Light Rain
10:17 AM 44.6°F 41.0°F 87% 30.36 in 10.0 miles WNW 10.4 mph - 0.00 in   Overcast
10:34 AM 44.6°F 39.2°F 81% 30.36 in 10.0 miles WNW 11.5 mph - 0.00 in   Overcast
10:45 AM 44.6°F 39.2°F 81% 30.36 in 10.0 miles NW 10.4 mph - 0.00 in   Overcast
10:54 AM 45.0°F 39.0°F 80% 30.36 in 10.0 miles NNW 12.7 mph - 0.00 in Rain Light Rain
11:06 AM 44.6°F 39.2°F 81% 30.36 in 10.0 miles NW 10.4 mph - 0.00 in Rain Light Rain
11:52 AM 42.8°F 37.4°F 81% 30.35 in 10.0 miles NNW 12.7 mph - 0.00 in Rain Light Rain
11:54 AM 43.0°F 37.9°F 82% 30.35 in 10.0 miles NNW 11.5 mph - 0.01 in Rain Light Rain
12:54 PM 45.0°F 37.9°F 76% 30.35 in 10.0 miles NNW 9.2 mph - 0.00 in   Overcast
1:54 PM 46.0°F 36.0°F 68% 30.35 in 10.0 miles North 10.4 mph - N/A   Scattered Clouds
2:54 PM 46.0°F 35.1°F 66% 30.35 in 10.0 miles NNW 10.4 mph - N/A   Mostly Cloudy
3:54 PM 46.9°F 33.1°F 59% 30.35 in 10.0 miles North 9.2 mph - N/A   Clear
4:54 PM 46.0°F 32.0°F 58% 30.38 in 10.0 miles North 9.2 mph - N/A   Overcast
5:54 PM 43.0°F 30.0°F 60% 30.40 in 10.0 miles North 8.1 mph - N/A   Clear
6:54 PM 41.0°F 30.0°F 65% 30.43 in 10.0 miles NNE 8.1 mph - N/A   Partly Cloudy
7:54 PM 41.0°F 30.0°F 65% 30.44 in 10.0 miles North 9.2 mph - N/A   Mostly Cloudy
8:54 PM 39.9°F 27.0°F 60% 30.47 in 10.0 miles North 6.9 mph - N/A   Clear
9:54 PM 39.0°F 26.1°F 60% 30.47 in 10.0 miles North 10.4 mph - N/A   Clear
10:54 PM 37.0°F 26.1°F 65% 30.48 in 10.0 miles NNW 9.2 mph - N/A   Clear
11:54 PM 37.0°F 25.0°F 62% 30.48 in 10.0 miles North 11.5 mph - N/A   Clear
Astronomy
Sunrise:06:43 AM (EST) Moon Rise:06:18 AM (EST)11/13
Sunset:04:44 PM (EST) Moon Set:04:35 PM (EST)11/13
Moon Phase
Nov. 13 Nov. 13 Nov. 20 Nov. 28 Dec. 06

Copyright © 2014 The Weather Underground, Inc.